Time,TemperatureF,DewpointF,PressureIn,WindDirection,WindDirectionDegrees,WindSpeedMPH,WindSpeedGustMPH,Humidity,HourlyPrecipIn,Conditions,Clouds,dailyrainin,SolarRadiationWatts/m^2,SoftwareType,DateUTC
2013-01-11 00:04:00,8.3,4.2,29.88,ENE,71,5.0,6.0,83,0.00,,,0.00,0,Wunderground v.1.15,2013-01-11 07:04:00,
2013-01-11 00:10:00,8.2,4.1,29.89,ENE,69,5.0,5.0,83,0.00,,,0.00,0,Wunderground v.1.15,2013-01-11 07:10:00,
2013-01-11 00:16:00,8.2,4.1,29.89,NE,43,5.0,12.0,83,0.00,,,0.00,0,Wunderground v.1.15,2013-01-11 07:16:00,
2013-01-11 00:22:00,8.3,3.9,29.89,NE,51,8.0,12.0,82,0.00,,,0.00,0,Wunderground v.1.15,2013-01-11 07:22:00,
2013-01-11 00:28:00,8.3,3.9,29.89,NNE,32,9.0,13.0,82,0.00,,,0.00,0,Wunderground v.1.15,2013-01-11 07:28:00,
2013-01-11 00:34:00,8.4,3.8,29.89,NNE,33,8.0,9.0,81,0.00,,,0.00,0,Wunderground v.1.15,2013-01-11 07:34:00,
2013-01-11 00:40:00,8.4,3.8,29.89,NNE,32,8.0,11.0,81,0.00,,,0.00,0,Wunderground v.1.15,2013-01-11 07:40:00,
2013-01-11 00:46:00,8.4,3.8,29.90,NE,47,11.0,11.0,81,0.00,,,0.00,0,Wunderground v.1.15,2013-01-11 07:46:00,
2013-01-11 00:52:00,8.5,3.9,29.90,East,80,10.0,11.0,81,0.00,,,0.00,0,Wunderground v.1.15,2013-01-11 07:52:00,
2013-01-11 00:58:00,8.5,3.6,29.90,ENE,70,9.0,11.0,80,0.00,,,0.00,0,Wunderground v.1.15,2013-01-11 07:58:00,
2013-01-11 01:04:00,8.5,3.6,29.91,ENE,64,8.0,9.0,80,0.00,,,0.00,0,Wunderground v.1.15,2013-01-11 08:04:00,
2013-01-11 01:10:00,8.5,3.6,29.91,NE,37,10.0,10.0,80,0.00,,,0.00,0,Wunderground v.1.15,2013-01-11 08:10:00,
2013-01-11 01:16:00,8.4,3.2,29.91,NE,40,10.0,11.0,79,0.00,,,0.00,0,Wunderground v.1.15,2013-01-11 08:16:00,
2013-01-11 01:22:00,8.3,3.1,29.91,ENE,57,10.0,11.0,79,0.00,,,0.00,0,Wunderground v.1.15,2013-01-11 08:22:00,
2013-01-11 01:28:00,8.1,2.7,29.91,NE,41,10.0,15.0,78,0.00,,,0.00,0,Wunderground v.1.15,2013-01-11 08:28:00,
2013-01-11 01:34:00,8.0,2.6,29.91,NE,40,11.0,11.0,78,0.00,,,0.00,0,Wunderground v.1.15,2013-01-11 08:34:00,
2013-01-11 01:44:00,7.7,2.3,29.92,NE,38,10.0,11.0,78,0.00,,,0.00,0,Wunderground v.1.15,2013-01-11 08:44:00,
2013-01-11 01:50:00,7.6,2.2,29.92,NE,46,10.0,11.0,78,0.00,,,0.00,0,Wunderground v.1.15,2013-01-11 08:50:00,
2013-01-11 01:56:00,7.4,2.0,29.93,ENE,60,10.0,13.0,78,0.00,,,0.00,0,Wunderground v.1.15,2013-01-11 08:56:00,
2013-01-11 02:02:00,7.3,1.9,29.92,NE,44,10.0,10.0,78,0.00,,,0.00,0,Wunderground v.1.15,2013-01-11 09:02:00,
2013-01-11 02:10:00,7.2,1.2,29.94,NNE,32,9.0,9.0,76,0.00,,,0.00,0,Wunderground v.1.15,2013-01-11 09:10:00,
2013-01-11 02:16:00,7.2,1.2,29.93,NNE,32,9.0,11.0,76,0.00,,,0.00,0,Wunderground v.1.15,2013-01-11 09:16:00,
2013-01-11 02:22:00,7.1,1.1,29.94,NE,39,8.0,9.0,76,0.00,,,0.00,0,Wunderground v.1.15,2013-01-11 09:22:00,
2013-01-11 02:28:00,7.1,1.1,29.94,NE,49,7.0,11.0,76,0.00,,,0.00,0,Wunderground v.1.15,2013-01-11 09:28:00,
2013-01-11 02:34:00,7.1,0.8,29.95,NE,36,7.0,7.0,75,0.00,,,0.00,0,Wunderground v.1.15,2013-01-11 09:34:00,
2013-01-11 02:40:00,6.9,0.9,29.96,NE,39,6.0,6.0,76,0.00,,,0.00,0,Wunderground v.1.15,2013-01-11 09:40:00,
2013-01-11 02:46:00,6.9,0.9,29.96,NE,40,5.0,6.0,76,0.00,,,0.00,0,Wunderground v.1.15,2013-01-11 09:46:00,
2013-01-11 02:52:00,6.9,0.9,29.96,NE,49,5.0,5.0,76,0.00,,,0.00,0,Wunderground v.1.15,2013-01-11 09:52:00,
2013-01-11 02:58:00,6.9,0.9,29.96,NE,55,5.0,5.0,76,0.00,,,0.00,0,Wunderground v.1.15,2013-01-11 09:58:00,
2013-01-11 03:04:00,6.8,0.8,29.97,NE,48,6.0,9.0,76,0.00,,,0.00,0,Wunderground v.1.15,2013-01-11 10:04:00,
2013-01-11 03:10:00,6.8,0.6,29.97,NE,34,6.0,6.0,75,0.00,,,0.00,0,Wunderground v.1.15,2013-01-11 10:10:00,
2013-01-11 03:16:00,6.7,0.5,29.97,NE,36,7.0,9.0,75,0.00,,,0.00,0,Wunderground v.1.15,2013-01-11 10:16:00,
2013-01-11 03:22:00,6.5,0.3,29.98,NNE,20,7.0,7.0,75,0.00,,,0.00,0,Wunderground v.1.15,2013-01-11 10:22:00,
2013-01-11 03:28:00,6.5,0.5,29.97,NNE,32,8.0,9.0,76,0.00,,,0.00,0,Wunderground v.1.15,2013-01-11 10:28:00,
2013-01-11 03:34:00,6.5,0.5,29.98,NNE,24,8.0,10.0,76,0.00,,,0.00,0,Wunderground v.1.15,2013-01-11 10:34:00,
2013-01-11 03:40:00,6.5,0.5,29.98,NNE,12,8.0,8.0,76,0.00,,,0.00,0,Wunderground v.1.15,2013-01-11 10:40:00,
2013-01-11 03:46:00,6.4,0.2,29.98,NNE,28,9.0,10.0,75,0.00,,,0.00,0,Wunderground v.1.15,2013-01-11 10:46:00,
2013-01-11 03:52:00,6.4,0.4,29.98,NNE,19,8.0,9.0,76,0.00,,,0.00,0,Wunderground v.1.15,2013-01-11 10:52:00,
2013-01-11 03:58:00,6.4,0.4,29.98,NNE,26,8.0,10.0,76,0.00,,,0.00,0,Wunderground v.1.15,2013-01-11 10:58:00,
2013-01-11 04:04:00,6.3,0.3,29.98,North,5,8.0,8.0,76,0.00,,,0.00,0,Wunderground v.1.15,2013-01-11 11:04:00,
2013-01-11 04:10:00,6.2,0.3,29.97,NNE,13,7.0,11.0,76,0.00,,,0.00,0,Wunderground v.1.15,2013-01-11 11:10:00,
2013-01-11 04:16:00,6.2,0.3,29.98,NNE,15,8.0,11.0,76,0.00,,,0.00,0,Wunderground v.1.15,2013-01-11 11:16:00,
2013-01-11 04:22:00,6.0,0.1,29.98,North,10,7.0,9.0,76,0.00,,,0.00,0,Wunderground v.1.15,2013-01-11 11:22:00,
2013-01-11 04:28:00,5.9,0.0,29.99,NNE,25,6.0,9.0,76,0.00,,,0.00,0,Wunderground v.1.15,2013-01-11 11:28:00,
2013-01-11 04:34:00,5.9,0.2,29.99,NNE,29,5.0,6.0,77,0.00,,,0.00,0,Wunderground v.1.15,2013-01-11 11:34:00,
2013-01-11 04:40:00,5.8,0.1,30.00,NNE,24,5.0,6.0,77,0.00,,,0.00,0,Wunderground v.1.15,2013-01-11 11:40:00,
2013-01-11 04:46:00,5.7,0.0,30.00,NNE,28,6.0,7.0,77,0.00,,,0.00,0,Wunderground v.1.15,2013-01-11 11:46:00,
2013-01-11 04:52:00,5.7,0.3,30.00,NNE,32,5.0,6.0,78,0.00,,,0.00,0,Wunderground v.1.15,2013-01-11 11:52:00,
2013-01-11 04:58:00,5.6,-0.1,30.00,NE,35,5.0,6.0,77,0.00,,,0.00,0,Wunderground v.1.15,2013-01-11 11:58:00,
2013-01-11 05:04:00,5.6,-0.1,30.00,NE,34,5.0,7.0,77,0.00,,,0.00,0,Wunderground v.1.15,2013-01-11 12:04:00,
2013-01-11 05:10:00,5.7,0.0,30.00,NE,37,6.0,9.0,77,0.00,,,0.00,0,Wunderground v.1.15,2013-01-11 12:10:00,
2013-01-11 05:16:00,5.7,0.0,30.01,NE,34,6.0,9.0,77,0.00,,,0.00,0,Wunderground v.1.15,2013-01-11 12:16:00,
2013-01-11 05:22:00,5.7,0.0,30.00,NE,44,6.0,7.0,77,0.00,,,0.00,0,Wunderground v.1.15,2013-01-11 12:22:00,
2013-01-11 05:28:00,5.8,0.1,30.01,NE,35,5.0,7.0,77,0.00,,,0.00,0,Wunderground v.1.15,2013-01-11 12:28:00,
2013-01-11 05:34:00,5.8,0.1,30.01,NE,39,6.0,8.0,77,0.00,,,0.00,0,Wunderground v.1.15,2013-01-11 12:34:00,
2013-01-11 05:40:00,5.8,0.1,30.01,NE,40,6.0,6.0,77,0.00,,,0.00,0,Wunderground v.1.15,2013-01-11 12:40:00,
2013-01-11 05:46:00,5.8,0.1,30.01,NNE,20,6.0,11.0,77,0.00,,,0.00,0,Wunderground v.1.15,2013-01-11 12:46:00,
2013-01-11 05:52:00,5.8,0.1,30.02,NNE,30,6.0,6.0,77,0.00,,,0.00,0,Wunderground v.1.15,2013-01-11 12:52:00,
2013-01-11 05:58:00,5.8,0.1,30.02,NNE,28,5.0,6.0,77,0.00,,,0.00,0,Wunderground v.1.15,2013-01-11 12:58:00,
2013-01-11 06:04:00,5.8,0.4,30.02,NNE,32,5.0,6.0,78,0.00,,,0.00,0,Wunderground v.1.15,2013-01-11 13:04:00,
2013-01-11 06:10:00,5.8,0.4,30.03,NNE,32,5.0,5.0,78,0.00,,,0.00,0,Wunderground v.1.15,2013-01-11 13:10:00,
2013-01-11 06:18:00,5.8,0.4,30.03,NE,35,5.0,6.0,78,0.00,,,0.00,0,Wunderground v.1.15,2013-01-11 13:18:00,
2013-01-11 06:24:00,5.8,0.4,30.03,NE,40,6.0,7.0,78,0.00,,,0.00,0,Wunderground v.1.15,2013-01-11 13:24:00,
2013-01-11 06:30:00,5.8,0.7,30.04,NNE,28,6.0,6.0,79,0.00,,,0.00,0,Wunderground v.1.15,2013-01-11 13:30:00,
2013-01-11 06:36:00,5.8,0.7,30.05,NE,35,5.0,6.0,79,0.00,,,0.00,0,Wunderground v.1.15,2013-01-11 13:36:00,
2013-01-11 06:48:00,5.7,0.9,30.05,NE,45,5.0,8.0,80,0.00,,,0.00,0,Wunderground v.1.15,2013-01-11 13:48:00,
2013-01-11 06:54:00,5.7,0.9,30.06,NNE,26,6.0,6.0,80,0.00,,,0.00,0,Wunderground v.1.15,2013-01-11 13:54:00,
2013-01-11 07:00:00,5.6,0.8,30.06,NNE,20,5.0,5.0,80,0.00,,,0.00,0,Wunderground v.1.15,2013-01-11 14:00:00,
2013-01-11 07:06:00,5.6,0.8,30.06,NNE,26,6.0,7.0,80,0.00,,,0.00,0,Wunderground v.1.15,2013-01-11 14:06:00,
2013-01-11 07:12:00,5.6,0.8,30.07,NNE,32,6.0,9.0,80,0.00,,,0.00,0,Wunderground v.1.15,2013-01-11 14:12:00,
2013-01-11 07:18:00,5.6,1.0,30.07,NE,38,6.0,9.0,81,0.00,,,0.00,0,Wunderground v.1.15,2013-01-11 14:18:00,
2013-01-11 07:24:00,5.6,1.0,30.08,NNE,33,6.0,9.0,81,0.00,,,0.00,0,Wunderground v.1.15,2013-01-11 14:24:00,
2013-01-11 07:30:00,5.6,1.0,30.08,NNE,28,6.0,6.0,81,0.00,,,0.00,0,Wunderground v.1.15,2013-01-11 14:30:00,
2013-01-11 07:36:00,5.6,1.0,30.09,NE,42,6.0,9.0,81,0.00,,,0.00,0,Wunderground v.1.15,2013-01-11 14:36:00,
2013-01-11 07:42:00,5.6,1.0,30.10,NE,40,5.0,5.0,81,0.00,,,0.00,0,Wunderground v.1.15,2013-01-11 14:42:00,
2013-01-11 07:48:00,5.6,1.0,30.10,NE,36,5.0,9.0,81,0.00,,,0.00,0,Wunderground v.1.15,2013-01-11 14:48:00,
2013-01-11 07:54:00,5.6,1.3,30.09,NNE,12,6.0,6.0,82,0.00,,,0.00,0,Wunderground v.1.15,2013-01-11 14:54:00,
2013-01-11 08:00:00,5.6,1.3,30.10,NNE,32,5.0,8.0,82,0.00,,,0.00,0,Wunderground v.1.15,2013-01-11 15:00:00,
2013-01-11 08:06:00,5.5,1.2,30.11,NE,42,6.0,8.0,82,0.00,,,0.00,0,Wunderground v.1.15,2013-01-11 15:06:00,
2013-01-11 08:12:00,5.5,1.2,30.11,NNE,28,6.0,6.0,82,0.00,,,0.00,0,Wunderground v.1.15,2013-01-11 15:12:00,
2013-01-11 08:18:00,5.5,1.2,30.12,NE,53,6.0,7.0,82,0.00,,,0.00,5,Wunderground v.1.15,2013-01-11 15:18:00,
2013-01-11 08:24:00,5.4,1.1,30.12,NE,34,5.0,5.0,82,0.00,,,0.00,7,Wunderground v.1.15,2013-01-11 15:24:00,
2013-01-11 08:30:00,5.4,1.4,30.12,NE,40,4.0,6.0,83,0.00,,,0.00,11,Wunderground v.1.15,2013-01-11 15:30:00,
2013-01-11 08:36:00,5.4,1.4,30.13,NE,36,4.0,6.0,83,0.00,,,0.00,12,Wunderground v.1.15,2013-01-11 15:36:00,
2013-01-11 08:42:00,5.4,1.4,30.13,NNE,28,4.0,4.0,83,0.00,,,0.00,16,Wunderground v.1.15,2013-01-11 15:42:00,
2013-01-11 08:48:00,5.4,1.4,30.13,NNE,22,4.0,4.0,83,0.00,,,0.00,21,Wunderground v.1.15,2013-01-11 15:48:00,
2013-01-11 08:54:00,5.5,1.5,30.13,NE,42,4.0,4.0,83,0.00,,,0.00,28,Wunderground v.1.15,2013-01-11 15:54:00,
2013-01-11 09:02:00,5.5,1.5,30.14,NE,34,5.0,5.0,83,0.00,,,0.00,33,Wunderground v.1.15,2013-01-11 16:02:00,
2013-01-11 09:08:00,5.6,1.6,30.14,NE,34,5.0,8.0,83,0.00,,,0.00,37,Wunderground v.1.15,2013-01-11 16:08:00,
2013-01-11 09:16:00,5.7,1.7,30.15,NNE,31,5.0,5.0,83,0.00,,,0.00,44,Wunderground v.1.15,2013-01-11 16:16:00,
2013-01-11 09:22:00,5.7,1.7,30.14,NNE,25,5.0,9.0,83,0.00,,,0.00,49,Wunderground v.1.15,2013-01-11 16:22:00,
2013-01-11 09:30:00,5.8,1.8,30.15,NNE,32,5.0,9.0,83,0.00,,,0.00,56,Wunderground v.1.15,2013-01-11 16:30:00,
2013-01-11 09:36:00,5.9,1.8,30.16,NNE,32,4.0,5.0,83,0.00,,,0.00,67,Wunderground v.1.15,2013-01-11 16:36:00,
2013-01-11 09:42:00,6.0,1.9,30.16,NNE,33,4.0,4.0,83,0.00,,,0.00,72,Wunderground v.1.15,2013-01-11 16:42:00,
2013-01-11 09:48:00,6.1,2.0,30.16,NNE,32,5.0,5.0,83,0.00,,,0.00,72,Wunderground v.1.15,2013-01-11 16:48:00,
2013-01-11 09:54:00,6.2,1.9,30.17,NE,36,4.0,5.0,82,0.00,,,0.00,93,Wunderground v.1.15,2013-01-11 16:54:00,
2013-01-11 10:00:00,6.4,2.1,30.17,NNE,29,5.0,5.0,82,0.00,,,0.00,111,Wunderground v.1.15,2013-01-11 17:00:00,
2013-01-11 10:06:00,6.5,2.4,30.17,NNE,24,5.0,5.0,83,0.00,,,0.00,116,Wunderground v.1.15,2013-01-11 17:06:00,
2013-01-11 10:12:00,6.8,2.7,30.17,NNE,24,5.0,5.0,83,0.00,,,0.00,118,Wunderground v.1.15,2013-01-11 17:12:00,
2013-01-11 10:18:00,6.9,2.6,30.18,NE,34,5.0,5.0,82,0.00,,,0.00,127,Wunderground v.1.15,2013-01-11 17:18:00,
2013-01-11 10:24:00,7.2,2.9,30.18,NNE,27,5.0,6.0,82,0.00,,,0.00,151,Wunderground v.1.15,2013-01-11 17:24:00,
2013-01-11 10:32:00,7.3,3.0,30.19,NNE,30,5.0,6.0,82,0.00,,,0.00,186,Wunderground v.1.15,2013-01-11 17:32:00,
2013-01-11 10:38:00,7.6,3.0,30.19,NNE,31,5.0,6.0,81,0.00,,,0.00,214,Wunderground v.1.15,2013-01-11 17:38:00,
2013-01-11 10:44:00,7.8,3.2,30.20,NNE,17,6.0,7.0,81,0.00,,,0.00,202,Wunderground v.1.15,2013-01-11 17:44:00,
2013-01-11 10:50:00,8.0,3.4,30.20,NNE,30,6.0,7.0,81,0.00,,,0.00,186,Wunderground v.1.15,2013-01-11 17:50:00,
2013-01-11 10:58:00,8.2,3.3,30.21,NNE,29,5.0,5.0,80,0.00,,,0.00,183,Wunderground v.1.15,2013-01-11 17:58:00,
2013-01-11 11:04:00,8.3,3.4,30.21,North,10,4.0,5.0,80,0.00,,,0.00,185,Wunderground v.1.15,2013-01-11 18:04:00,
2013-01-11 11:10:00,8.5,3.6,30.21,NNE,27,5.0,6.0,80,0.00,,,0.00,190,Wunderground v.1.15,2013-01-11 18:10:00,
2013-01-11 11:16:00,8.7,3.8,30.21,NNE,28,5.0,6.0,80,0.00,,,0.00,197,Wunderground v.1.15,2013-01-11 18:16:00,
2013-01-11 11:22:00,8.8,3.9,30.21,NE,47,5.0,7.0,80,0.00,,,0.00,211,Wunderground v.1.15,2013-01-11 18:22:00,
2013-01-11 11:28:00,8.9,3.7,30.21,NE,44,5.0,7.0,79,0.00,,,0.00,241,Wunderground v.1.15,2013-01-11 18:28:00,
2013-01-11 11:34:00,9.0,3.8,30.21,NE,55,4.0,4.0,79,0.00,,,0.00,244,Wunderground v.1.15,2013-01-11 18:34:00,
2013-01-11 11:40:00,9.4,4.2,30.22,NE,45,4.0,6.0,79,0.00,,,0.00,265,Wunderground v.1.15,2013-01-11 18:40:00,
2013-01-11 11:46:00,9.7,4.2,30.22,NNE,28,5.0,7.0,78,0.00,,,0.00,269,Wunderground v.1.15,2013-01-11 18:46:00,
2013-01-11 11:52:00,9.9,4.4,30.22,NE,45,5.0,6.0,78,0.00,,,0.00,274,Wunderground v.1.15,2013-01-11 18:52:00,
2013-01-11 11:58:00,9.9,3.8,30.22,NE,37,5.0,6.0,76,0.00,,,0.00,288,Wunderground v.1.15,2013-01-11 18:58:00,
2013-01-11 12:04:00,10.0,4.5,30.22,NE,44,4.0,6.0,78,0.00,,,0.00,297,Wunderground v.1.15,2013-01-11 19:04:00,
2013-01-11 12:10:00,10.3,4.8,30.22,NNE,21,5.0,5.0,78,0.00,,,0.00,306,Wunderground v.1.15,2013-01-11 19:10:00,
2013-01-11 12:16:00,10.7,5.2,30.22,NE,36,4.0,5.0,78,0.00,,,0.00,330,Wunderground v.1.15,2013-01-11 19:16:00,
2013-01-11 12:22:00,11.0,4.9,30.22,NNE,13,4.0,6.0,76,0.00,,,0.00,315,Wunderground v.1.15,2013-01-11 19:22:00,
2013-01-11 12:28:00,11.2,5.1,30.23,NE,40,4.0,6.0,76,0.00,,,0.00,294,Wunderground v.1.15,2013-01-11 19:28:00,
2013-01-11 12:34:00,11.4,5.3,30.22,NE,37,4.0,5.0,76,0.00,,,0.00,274,Wunderground v.1.15,2013-01-11 19:34:00,
2013-01-11 12:40:00,11.5,5.1,30.23,NNE,19,3.0,3.0,75,0.00,,,0.00,255,Wunderground v.1.15,2013-01-11 19:40:00,
2013-01-11 12:46:00,11.2,4.5,30.22,NNE,15,4.0,4.0,74,0.00,,,0.00,232,Wunderground v.1.15,2013-01-11 19:46:00,
2013-01-11 12:52:00,10.9,4.2,30.22,NNE,19,4.0,4.0,74,0.00,,,0.00,211,Wunderground v.1.15,2013-01-11 19:52:00,
2013-01-11 12:58:00,10.6,4.2,30.23,NNE,29,4.0,5.0,75,0.00,,,0.00,197,Wunderground v.1.15,2013-01-11 19:58:00,
2013-01-11 13:04:00,10.4,4.0,30.23,NNE,14,4.0,4.0,75,0.00,,,0.00,181,Wunderground v.1.15,2013-01-11 20:04:00,
2013-01-11 13:10:00,10.1,4.0,30.23,NNE,18,4.0,4.0,76,0.00,,,0.00,171,Wunderground v.1.15,2013-01-11 20:10:00,
2013-01-11 13:16:00,9.9,3.8,30.23,North,11,3.0,5.0,76,0.00,,,0.00,169,Wunderground v.1.15,2013-01-11 20:16:00,
2013-01-11 13:22:00,9.7,3.9,30.24,NNE,22,3.0,4.0,77,0.00,,,0.00,169,Wunderground v.1.15,2013-01-11 20:22:00,
2013-01-11 13:28:00,9.7,3.9,30.24,NNE,22,3.0,4.0,77,0.00,,,0.00,171,Wunderground v.1.15,2013-01-11 20:28:00,
2013-01-11 13:34:00,9.7,3.9,30.25,NNE,22,2.0,3.0,77,0.00,,,0.00,178,Wunderground v.1.15,2013-01-11 20:34:00,
2013-01-11 13:40:00,9.6,4.1,30.25,NNE,22,2.0,3.0,78,0.00,,,0.00,188,Wunderground v.1.15,2013-01-11 20:40:00,
2013-01-11 13:46:00,9.9,4.4,30.25,NNE,22,3.0,3.0,78,0.00,,,0.00,195,Wunderground v.1.15,2013-01-11 20:46:00,
2013-01-11 13:52:00,10.0,4.2,30.25,NNE,22,3.0,3.0,77,0.00,,,0.00,192,Wunderground v.1.15,2013-01-11 20:52:00,
2013-01-11 13:58:00,10.1,4.3,30.25,NNE,22,3.0,3.0,77,0.00,,,0.00,192,Wunderground v.1.15,2013-01-11 20:58:00,
2013-01-11 14:04:00,10.1,4.0,30.25,NNE,22,3.0,4.0,76,0.00,,,0.00,188,Wunderground v.1.15,2013-01-11 21:04:00,
2013-01-11 14:10:00,10.1,4.0,30.26,North,5,3.0,3.0,76,0.00,,,0.00,181,Wunderground v.1.15,2013-01-11 21:10:00,
2013-01-11 14:16:00,10.0,3.9,30.26,North,9,3.0,4.0,76,0.00,,,0.00,172,Wunderground v.1.15,2013-01-11 21:16:00,
2013-01-11 14:22:00,9.9,4.1,30.27,North,11,3.0,3.0,77,0.00,,,0.00,167,Wunderground v.1.15,2013-01-11 21:22:00,
2013-01-11 14:28:00,10.0,4.2,30.27,NNE,13,3.0,3.0,77,0.00,,,0.00,156,Wunderground v.1.15,2013-01-11 21:28:00,
2013-01-11 14:34:00,10.0,3.9,30.28,North,11,3.0,4.0,76,0.00,,,0.00,153,Wunderground v.1.15,2013-01-11 21:34:00,
2013-01-11 14:40:00,9.8,3.7,30.28,North,11,3.0,3.0,76,0.00,,,0.00,149,Wunderground v.1.15,2013-01-11 21:40:00,
2013-01-11 14:46:00,9.7,3.7,30.28,North,11,3.0,3.0,76,0.00,,,0.00,142,Wunderground v.1.15,2013-01-11 21:46:00,
2013-01-11 14:52:00,9.6,3.8,30.29,North,11,1.0,2.0,77,0.00,,,0.00,139,Wunderground v.1.15,2013-01-11 21:52:00,
2013-01-11 14:58:00,9.6,3.8,30.29,North,11,1.0,4.0,77,0.00,,,0.00,141,Wunderground v.1.15,2013-01-11 21:58:00,
2013-01-11 15:04:00,9.7,3.9,30.29,North,11,1.0,2.0,77,0.00,,,0.00,139,Wunderground v.1.15,2013-01-11 22:04:00,
2013-01-11 15:10:00,9.8,4.0,30.30,NNE,13,1.0,1.0,77,0.00,,,0.00,135,Wunderground v.1.15,2013-01-11 22:10:00,
2013-01-11 15:16:00,9.8,4.0,30.30,NNE,13,2.0,3.0,77,0.00,,,0.00,128,Wunderground v.1.15,2013-01-11 22:16:00,
2013-01-11 15:22:00,9.8,3.7,30.31,NNE,13,1.0,2.0,76,0.00,,,0.00,116,Wunderground v.1.15,2013-01-11 22:22:00,
2013-01-11 15:28:00,9.8,3.7,30.31,NNE,13,1.0,2.0,76,0.00,,,0.00,111,Wunderground v.1.15,2013-01-11 22:28:00,
2013-01-11 15:34:00,9.8,3.7,30.31,NNE,13,1.0,3.0,76,0.00,,,0.00,104,Wunderground v.1.15,2013-01-11 22:34:00,
2013-01-11 15:40:00,9.7,3.4,30.31,NNE,13,1.0,1.0,75,0.00,,,0.00,97,Wunderground v.1.15,2013-01-11 22:40:00,
2013-01-11 15:46:00,9.6,3.3,30.31,NNE,13,1.0,2.0,75,0.00,,,0.00,90,Wunderground v.1.15,2013-01-11 22:46:00,
2013-01-11 15:52:00,9.6,3.6,30.31,NNE,13,1.0,1.0,76,0.00,,,0.00,83,Wunderground v.1.15,2013-01-11 22:52:00,
2013-01-11 15:58:00,9.5,3.2,30.32,NNE,13,2.0,3.0,75,0.00,,,0.00,79,Wunderground v.1.15,2013-01-11 22:58:00,
2013-01-11 16:04:00,9.4,3.1,30.32,NNE,13,2.0,2.0,75,0.00,,,0.00,77,Wunderground v.1.15,2013-01-11 23:04:00,
2013-01-11 16:12:00,9.2,3.4,30.32,NNE,13,3.0,3.0,77,0.00,,,0.00,72,Wunderground v.1.15,2013-01-11 23:12:00,
2013-01-11 16:18:00,9.1,3.4,30.33,NNE,13,3.0,3.0,77,0.00,,,0.00,69,Wunderground v.1.15,2013-01-11 23:18:00,
2013-01-11 16:24:00,9.0,3.5,30.33,NNE,13,2.0,2.0,78,0.00,,,0.00,58,Wunderground v.1.15,2013-01-11 23:24:00,
2013-01-11 16:30:00,8.9,3.2,30.33,NNE,13,1.0,1.0,77,0.00,,,0.00,47,Wunderground v.1.15,2013-01-11 23:30:00,
2013-01-11 16:36:00,8.8,3.3,30.33,NNE,13,0.0,1.0,78,0.00,,,0.00,35,Wunderground v.1.15,2013-01-11 23:36:00,
2013-01-11 16:42:00,8.6,3.1,30.34,NNE,13,0.0,0.0,78,0.00,,,0.00,30,Wunderground v.1.15,2013-01-11 23:42:00,
2013-01-11 16:48:00,8.5,3.0,30.34,NNE,13,0.0,1.0,78,0.00,,,0.00,21,Wunderground v.1.15,2013-01-11 23:48:00,
2013-01-11 16:54:00,8.2,2.8,30.34,NNE,13,1.0,2.0,78,0.00,,,0.00,14,Wunderground v.1.15,2013-01-11 23:54:00,
2013-01-11 17:00:00,8.0,2.8,30.34,NNE,13,1.0,3.0,79,0.00,,,0.00,7,Wunderground v.1.15,2013-01-12 00:00:00,
2013-01-11 17:06:00,7.7,2.5,30.34,NNE,13,2.0,3.0,79,0.00,,,0.00,0,Wunderground v.1.15,2013-01-12 00:06:00,
2013-01-11 17:12:00,7.5,2.3,30.34,NNE,13,1.0,2.0,79,0.00,,,0.00,0,Wunderground v.1.15,2013-01-12 00:12:00,
2013-01-11 17:18:00,7.3,2.4,30.35,NNE,13,1.0,2.0,80,0.00,,,0.00,0,Wunderground v.1.15,2013-01-12 00:18:00,
2013-01-11 17:24:00,7.2,2.3,30.35,NNE,13,1.0,1.0,80,0.00,,,0.00,0,Wunderground v.1.15,2013-01-12 00:24:00,
2013-01-11 17:30:00,7.0,2.1,30.35,NNE,13,0.0,0.0,80,0.00,,,0.00,0,Wunderground v.1.15,2013-01-12 00:30:00,
2013-01-11 17:36:00,6.9,2.0,30.35,NNE,13,0.0,0.0,80,0.00,,,0.00,0,Wunderground v.1.15,2013-01-12 00:36:00,
2013-01-11 17:42:00,6.8,1.9,30.35,NNE,13,0.0,0.0,80,0.00,,,0.00,0,Wunderground v.1.15,2013-01-12 00:42:00,
2013-01-11 17:48:00,6.7,1.8,30.36,NNE,13,0.0,0.0,80,0.00,,,0.00,0,Wunderground v.1.15,2013-01-12 00:48:00,
2013-01-11 17:54:00,6.5,1.6,30.36,NNE,13,0.0,0.0,80,0.00,,,0.00,0,Wunderground v.1.15,2013-01-12 00:54:00,
2013-01-11 18:00:00,6.2,1.4,30.36,NNE,13,0.0,0.0,80,0.00,,,0.00,0,Wunderground v.1.15,2013-01-12 01:00:00,
2013-01-11 18:06:00,6.0,1.2,30.36,NNE,13,0.0,0.0,80,0.00,,,0.00,0,Wunderground v.1.15,2013-01-12 01:06:00,
2013-01-11 18:12:00,5.8,1.0,30.36,NNE,13,0.0,0.0,80,0.00,,,0.00,0,Wunderground v.1.15,2013-01-12 01:12:00,
2013-01-11 18:18:00,5.6,0.8,30.35,NNE,13,0.0,0.0,80,0.00,,,0.00,0,Wunderground v.1.15,2013-01-12 01:18:00,
2013-01-11 18:24:00,5.4,0.6,30.36,NNE,13,0.0,0.0,80,0.00,,,0.00,0,Wunderground v.1.15,2013-01-12 01:24:00,
2013-01-11 18:30:00,5.2,0.4,30.36,NNE,13,0.0,0.0,80,0.00,,,0.00,0,Wunderground v.1.15,2013-01-12 01:30:00,
2013-01-11 18:36:00,5.0,0.2,30.36,NNE,13,0.0,0.0,80,0.00,,,0.00,0,Wunderground v.1.15,2013-01-12 01:36:00,
2013-01-11 18:42:00,4.8,0.0,30.36,NNE,13,0.0,0.0,80,0.00,,,0.00,0,Wunderground v.1.15,2013-01-12 01:42:00,
2013-01-11 18:48:00,4.6,-0.2,30.36,NNE,13,0.0,0.0,80,0.00,,,0.00,0,Wunderground v.1.15,2013-01-12 01:48:00,
2013-01-11 18:54:00,4.4,-0.4,30.36,NNE,13,0.0,0.0,80,0.00,,,0.00,0,Wunderground v.1.15,2013-01-12 01:54:00,
2013-01-11 19:00:00,4.2,-0.6,30.36,NNE,13,0.0,0.0,80,0.00,,,0.00,0,Wunderground v.1.15,2013-01-12 02:00:00,
2013-01-11 19:06:00,4.0,-0.8,30.37,NNE,13,0.0,0.0,80,0.00,,,0.00,0,Wunderground v.1.15,2013-01-12 02:06:00,
2013-01-11 19:18:00,3.2,-1.8,30.37,NNE,13,0.0,0.0,79,0.00,,,0.00,0,Wunderground v.1.15,2013-01-12 02:18:00,
2013-01-11 19:24:00,2.9,-1.9,30.38,NNE,13,0.0,0.0,80,0.00,,,0.00,0,Wunderground v.1.15,2013-01-12 02:24:00,
2013-01-11 19:30:00,2.5,-2.5,30.38,NNE,13,0.0,0.0,79,0.00,,,0.00,0,Wunderground v.1.15,2013-01-12 02:30:00,
2013-01-11 19:36:00,2.0,-3.3,30.38,NNE,13,0.0,0.0,78,0.00,,,0.00,0,Wunderground v.1.15,2013-01-12 02:36:00,
2013-01-11 19:42:00,1.7,-3.3,30.38,NNE,13,0.0,0.0,79,0.00,,,0.00,0,Wunderground v.1.15,2013-01-12 02:42:00,
2013-01-11 19:48:00,1.4,-3.6,30.38,NNE,13,0.0,0.0,79,0.00,,,0.00,0,Wunderground v.1.15,2013-01-12 02:48:00,
2013-01-11 19:54:00,1.1,-3.6,30.38,NNE,13,0.0,0.0,80,0.00,,,0.00,0,Wunderground v.1.15,2013-01-12 02:54:00,
2013-01-11 20:00:00,0.9,-3.8,30.38,NNE,13,0.0,0.0,80,0.00,,,0.00,0,Wunderground v.1.15,2013-01-12 03:00:00,
2013-01-11 20:06:00,0.7,-3.8,30.39,NNE,13,0.0,0.0,81,0.00,,,0.00,0,Wunderground v.1.15,2013-01-12 03:06:00,
2013-01-11 20:12:00,0.6,-3.9,30.39,NNE,13,0.0,0.0,81,0.00,,,0.00,0,Wunderground v.1.15,2013-01-12 03:12:00,
2013-01-11 20:18:00,0.5,-3.7,30.39,NNE,13,0.0,0.0,82,0.00,,,0.00,0,Wunderground v.1.15,2013-01-12 03:18:00,
2013-01-11 20:24:00,0.5,-3.4,30.39,NNE,13,0.0,0.0,83,0.00,,,0.00,0,Wunderground v.1.15,2013-01-12 03:24:00,
2013-01-11 20:30:00,0.5,-3.7,30.39,NNE,13,0.0,0.0,82,0.00,,,0.00,0,Wunderground v.1.15,2013-01-12 03:30:00,
2013-01-11 20:36:00,0.4,-3.8,30.39,NNE,13,0.0,0.0,82,0.00,,,0.00,0,Wunderground v.1.15,2013-01-12 03:36:00,
2013-01-11 20:42:00,0.3,-3.9,30.39,North,11,0.0,0.0,82,0.00,,,0.00,0,Wunderground v.1.15,2013-01-12 03:42:00,
2013-01-11 20:50:00,0.3,-3.9,30.39,North,11,0.0,0.0,82,0.00,,,0.00,0,Wunderground v.1.15,2013-01-12 03:50:00,
2013-01-11 20:58:00,0.3,-3.9,30.39,North,11,0.0,0.0,82,0.00,,,0.00,0,Wunderground v.1.15,2013-01-12 03:58:00,
2013-01-11 21:04:00,0.2,-4.0,30.39,North,11,0.0,0.0,82,0.00,,,0.00,0,Wunderground v.1.15,2013-01-12 04:04:00,
2013-01-11 21:10:00,0.1,-4.1,30.39,North,11,0.0,0.0,82,0.00,,,0.00,0,Wunderground v.1.15,2013-01-12 04:10:00,
2013-01-11 21:16:00,-0.1,-1.9,30.40,North,11,0.0,0.0,92,0.00,,,0.00,0,Wunderground v.1.15,2013-01-12 04:16:00,
2013-01-11 21:22:00,-0.3,-4.7,30.39,North,11,0.0,0.0,81,0.00,,,0.00,0,Wunderground v.1.15,2013-01-12 04:22:00,
2013-01-11 21:28:00,-0.5,-4.9,30.39,North,11,0.0,0.0,81,0.00,,,0.00,0,Wunderground v.1.15,2013-01-12 04:28:00,
2013-01-11 21:34:00,-0.8,-5.5,30.39,North,11,0.0,0.0,80,0.00,,,0.00,0,Wunderground v.1.15,2013-01-12 04:34:00,
2013-01-11 21:40:00,-1.1,-6.0,30.39,North,11,0.0,0.0,79,0.00,,,0.00,0,Wunderground v.1.15,2013-01-12 04:40:00,
2013-01-11 21:46:00,-1.4,-6.1,30.39,WNW,284,0.0,1.0,80,0.00,,,0.00,0,Wunderground v.1.15,2013-01-12 04:46:00,
2013-01-11 21:52:00,-1.6,-6.3,30.39,WNW,284,0.0,0.0,80,0.00,,,0.00,0,Wunderground v.1.15,2013-01-12 04:52:00,
2013-01-11 21:58:00,-1.8,-6.5,30.39,WNW,284,0.0,0.0,80,0.00,,,0.00,0,Wunderground v.1.15,2013-01-12 04:58:00,
2013-01-11 22:00:00,-1.9,-6.6,30.39,WNW,284,0.0,0.0,80,0.00,,,0.00,0,Wunderground v.1.15,2013-01-12 05:00:00,
2013-01-11 22:06:00,-2.4,-7.6,30.39,WNW,284,0.0,0.0,78,0.00,,,0.00,0,Wunderground v.1.15,2013-01-12 05:06:00,
2013-01-11 22:08:00,-2.5,-7.7,30.39,WNW,284,0.0,0.0,78,0.00,,,0.00,0,Wunderground v.1.15,2013-01-12 05:08:00,
2013-01-11 22:14:00,-2.7,-7.9,30.39,WNW,284,0.0,0.0,78,0.00,,,0.00,0,Wunderground v.1.15,2013-01-12 05:14:00,
2013-01-11 22:20:00,-3.0,-7.9,30.39,WNW,284,0.0,2.0,79,0.00,,,0.00,0,Wunderground v.1.15,2013-01-12 05:20:00,
2013-01-11 22:26:00,-3.2,-7.8,30.40,WNW,284,1.0,2.0,80,0.00,,,0.00,0,Wunderground v.1.15,2013-01-12 05:26:00,
2013-01-11 22:32:00,-3.4,-8.0,30.40,WNW,284,1.0,2.0,80,0.00,,,0.00,0,Wunderground v.1.15,2013-01-12 05:32:00,
2013-01-11 22:38:00,-3.6,-8.0,30.41,WNW,284,1.0,2.0,81,0.00,,,0.00,0,Wunderground v.1.15,2013-01-12 05:38:00,
2013-01-11 22:44:00,-3.9,-8.5,30.41,WNW,284,1.0,2.0,80,0.00,,,0.00,0,Wunderground v.1.15,2013-01-12 05:44:00,
2013-01-11 22:50:00,-4.1,-8.7,30.41,WNW,284,1.0,2.0,80,0.00,,,0.00,0,Wunderground v.1.15,2013-01-12 05:50:00,
2013-01-11 22:56:00,-4.2,-8.8,30.41,WNW,284,2.0,3.0,80,0.00,,,0.00,0,Wunderground v.1.15,2013-01-12 05:56:00,
2013-01-11 23:02:00,-4.3,-8.7,30.41,WNW,284,1.0,1.0,81,0.00,,,0.00,0,Wunderground v.1.15,2013-01-12 06:02:00,
2013-01-11 23:08:00,-4.3,-8.7,30.41,WNW,284,0.0,1.0,81,0.00,,,0.00,0,Wunderground v.1.15,2013-01-12 06:08:00,
2013-01-11 23:14:00,-4.3,-8.7,30.41,WNW,284,0.0,1.0,81,0.00,,,0.00,0,Wunderground v.1.15,2013-01-12 06:14:00,
2013-01-11 23:20:00,-4.4,-6.1,30.42,WNW,284,1.0,2.0,92,0.00,,,0.00,0,Wunderground v.1.15,2013-01-12 06:20:00,
2013-01-11 23:26:00,-4.4,-8.8,30.42,WNW,284,1.0,2.0,81,0.00,,,0.00,0,Wunderground v.1.15,2013-01-12 06:26:00,
2013-01-11 23:32:00,-4.4,-8.5,30.42,WNW,284,1.0,3.0,82,0.00,,,0.00,0,Wunderground v.1.15,2013-01-12 06:32:00,
2013-01-11 23:38:00,-4.4,-8.5,30.42,WNW,284,2.0,4.0,82,0.00,,,0.00,0,Wunderground v.1.15,2013-01-12 06:38:00,
2013-01-11 23:44:00,-4.4,-8.5,30.42,WNW,284,2.0,3.0,82,0.00,,,0.00,0,Wunderground v.1.15,2013-01-12 06:44:00,
2013-01-11 23:50:00,-4.4,-8.5,30.42,WNW,284,3.0,3.0,82,0.00,,,0.00,0,Wunderground v.1.15,2013-01-12 06:50:00,
2013-01-11 23:56:00,-4.5,-8.6,30.42,West,279,2.0,3.0,82,0.00,,,0.00,0,Wunderground v.1.15,2013-01-12 06:56:00,